Showing default

NAVSTAR 70 (USA 251), 39741

Orbit data source: Space-Track

NAVSTAR 70 (USA 251), 39741 is a payload satellite owned by USAF SMC (US) in MEO that was launched on Sat, 17 May 2014 UTC via a DELTA 4M+(4,2) launch vehicle from the Air Force Eastern Test Range (AFETR). Payload-class satellites include a variety of spacecraft equipped with specific instruments for various scientific and technological missions. These include communications satellites like Starlink; space stations such as the ISS; scientific satellites like the Hubble; Earth observation satellites from companies like Planet Labs, Umbra, and HawkEye 360; GPS; miniature CubeSats for education and research; and military/defense satellites.

Loading next visibility...
Identifier
39741, 2014-026A
Orbit
MEO
Country
Flag of USUS
Related business
Manufacturer
Boeing/ES
Mission
Operational Defense Navigation
Bus & Motor
GPS IIF, AOCS
Mass
1,630 kg wet, ~1,500 kg dry
Launch date (UTC)
2014-05-17 (11 years ago)
Launch vehicle
DELTA 4M+(4,2)
Launch site
Air Force Eastern Test Range (AFETR)
Object type
Payload
Rocket body
Debris
Shape & HBR
Box + 2 Pan, 9.0 m
Radar Cross Section
13.960 m², Large (>1 m²)

Expand to show TLE details & history
Last TLE update: 2 days ago

TLE from 2 days ago
0 NAVSTAR 70 (USA 251)
1 39741U 14026A   25307.10563304 -.00000051  00000-0  00000-0 0  9993
2 39741  56.5977 340.3190 0037847 317.0884  42.6794  2.00563999 84002
Epoch: 2025-11-03T02:32Z
TLE epoch observation values (Epoch: 2025-11-03T02:32:06.694Z)
Latitude
0.00002°
Longitude
-100.30397°
Altitude
20,108.916 km
Speed
3.885 km/s
True Right ascension
22h 41m 20s
True Declination
0° 00' 00"
Sunlit
Object was in daylight at epoch
Visualization orbit readout
Latitude
Unknown
Longitude
Unknown
Altitude
Unknown
Speed
Unknown
Apparent Right ascension
Unknown
Apparent Declination
Unknown
Sunlit
N/A
Visualization observer readout
Local Sidereal Time
20:21:03
Azimuth
Unknown
Elevation
Unknown
Doppler factor
Unknown
Orbital elements
Apogee altitude
20,282.64 km
Perigee altitude
20,081.594 km
Semi-major axis
26,560.254 km
Eccentricity
0.00378
Inclination
56.5977°
RAAN
340.319°
Arg. of periapsis
317.0884°
True anomaly
42.97442°
Mean anomaly
42.6794°
Eccentric anomaly
42.82681°
Mean motion
0.50141 °/min
Orbital period
717.97 mins
BSTAR
0
Loading maneuver chart data...
Computing Atmospheric mass density...

Documentation

Showing up to 5 results
|